Regional Weather Roundup
Issued by NWS

Home | Current Version | Previous Version | Graphics & Text | Print | Product List | Glossary On
Versions: 1 2 3 4 5 6 7 8 9 10 11 12 13 14 15 16 17 18 19 20 21 22 23 24 25 26 27 28 29 30 31 32 33 34 35 36 37 38 39 40 41 42 43 44 45 46 47 48 49 50
000
ASUS43 KDMX 070308
RWRIA

WEATHER ROUNDUP FOR IOWA
NATIONAL WEATHER SERVICE DES MOINES IA
900 PM CST SAT FEB 06 2016

NOTE: "FAIR" INDICATES FEW OR NO CLOUDS BELOW 12,000 FEET WITH NO
SIGNIFICANT WEATHER AND/OR OBSTRUCTIONS TO VISIBILITY.

* - THESE STATIONS ARE NOT NWS STATIONS...THUS NOT UNDER NWS
QUALITY CONTROL.  THEY ALSO DO NOT REPORT WEATHER SUCH
AS PRECIPITATION OR FOG.

IAZ001>003-012>014-020>022-031>034-043>046-070400-
   NORTHWEST IOWA

CITY           SKY/WX    TMP DP  RH WIND       PRES   REMARKS
CARROLL *      CLEAR     36  30  80 SW22      29.92F WCI  24
CHEROKEE *     CLOUDY    34  28  80 SW10      29.88F WCI  26
DENISON *      CLEAR     36  25  64 SW14G21   29.91F WCI  27
LE MARS *      CLEAR     32  30  93 S10       29.88F WCI  24
ORANGE CITY *  PTCLDY    30  28  93 S7        29.86F WCI  23
SHELDON *      MOCLDY    32  28  86 S13       29.84S WCI  22
SIOUX CITY     CLOUDY    34  26  72 SE6       29.90F WCI  29
SPENCER        CLOUDY    32  25  75 S13       29.85F WCI  22
STORM LAKE *   CLEAR     32  28  86 SW21G28   29.87F WCI  20
$$

IAZ055>058-069>071-079>083-090>094-070400-
   SOUTHWEST IOWA

CITY           SKY/WX    TMP DP  RH WIND       PRES   REMARKS
ATLANTIC *     CLEAR     37  28  70 SW15G22   29.96F WCI  28
AUDUBON *      CLEAR     37  30  75 SW9G18    29.96F WCI  31
CLARINDA *     CLEAR     37  30  75 S13       30.02F WCI  29
COUNCIL BLFS * CLEAR     36  28  75 SW8       29.98R WCI  29
CRESTON *      CLEAR     37  30  75 SW20      30.00F WCI  27
HARLAN  *      CLEAR     34  28  80 SW12      29.99F WCI  25
LAMONI         PTCLDY    37  29  72 S12       30.03F WCI  29
RED OAK *      PTCLDY    36  30  80 S12       29.99F WCI  27
SHENANDOAH *   CLEAR     39  32  75 S14G21    30.00F WCI  31
$$

IAZ047>049-059>061-072>074-084-070400-
   CENTRAL IOWA

CITY           SKY/WX    TMP DP  RH WIND       PRES   REMARKS
AMES           MOCLDY    35  30  82 S13       29.97F WCI  26
ANKENY *       CLEAR     37  32  81 S12       29.98F WCI  30
BOONE *        CLEAR     37  30  75 S15       29.93F WCI  28
CHARITON *     PTCLDY    36  30  80 S13       30.02F WCI  27
DES MOINES     PTCLDY    36  29  75 S9        30.00F WCI  29
GRINNELL*      CLOUDY    34  30  86 S10       30.01F WCI  26
KNOXVILLE *    MOCLDY    37  30  75 S10       30.00F WCI  30
MARSHALLTOWN   CLOUDY    34  30  85 S15       29.97F WCI  24
NEWTON *       CLEAR     32  32 100 S9        30.00F WCI  24
PELLA *        CLOUDY    34  30  86 S7        30.03F WCI  28
$$

IAZ004>006-015-016-023>025-035-036-070400-
   NORTH CENTRAL IOWA

CITY           SKY/WX    TMP DP  RH WIND       PRES   REMARKS
ALGONA *       PTCLDY    32  28  86 SW15      29.88F WCI  22
CLARION *      CLEAR     30  28  93 S13       29.92F WCI  20
ESTHERVILLE    CLOUDY    32  26  78 SW17      29.84F WCI  21
FORT DODGE *   CLOUDY    34  27  75 SW13G18   29.92F WCI  25
MASON CITY     CLOUDY    32  29  88 S16       29.91F WCI  21
FOREST CITY *  CLEAR     32  30  93 S15G23    29.89F WCI  22
WEBSTER CITY * CLEAR     36  30  80 S16       29.90F WCI  26
IOWA FALLS *     N/A     34  30  86 S18       29.94F WCI  23
$$

IAZ007>011-017>019-026>030-037>042-050>054-066-070400-
   NORTHEAST IOWA

CITY           SKY/WX    TMP DP  RH WIND       PRES   REMARKS
CEDAR RAPIDS   CLOUDY    32  32 100 S8        30.03F FOG     WCI  25
CHARLES CITY * MOCLDY    30  30 100 S16       29.94F WCI  19
CLINTON *      CLEAR     29  28  96 S7        30.07F WCI  22
DECORAH *      CLOUDY    28  30 100 S10       29.94F WCI  19
DUBUQUE        PTCLDY    28  26  92 S10       30.02F WCI  19
MONTICELLO *   CLOUDY    30  28  93 S6        30.04F WCI  24
OELWEIN *      CLOUDY    30  30 100 S15       29.99F WCI  19
WATERLOO       CLOUDY    31  28  89 S10       29.97  WCI  22
$$

IAZ064-065-067-068-078-070400-
   EAST CENTRAL IOWA

CITY           SKY/WX    TMP DP  RH WIND       PRES   REMARKS
DAVENPORT      CLEAR     29  26  89 S7        30.07F WCI  22
IOWA CITY      PTCLDY    29  28  96 CALM      30.07F FOG
MT. PLEASANT * CLEAR     36  32  87 S8        30.09F WCI  29
MUSCATINE *    PTCLDY    30  28  93 S7        30.08F WCI  23
QUAD CITIES    CLEAR     29  25  85 S3        30.07F
$$

IAZ062-063-075>077-085>089-095>099-070400-
   SOUTHEAST IOWA

CITY           SKY/WX    TMP DP  RH WIND       PRES   REMARKS
BURLINGTON     CLEAR     34  28  79 S7        30.10F WCI  28
FAIRFIELD *    MOCLDY    34  28  80 S7        30.06F WCI  28
FORT MADISON * CLEAR     36  28  75 S6        30.11F WCI  31
KEOKUK *       CLEAR     36  30  80 S7        30.10F WCI  30
OSKALOOSA *      N/A     34  30  86 S8        30.04F WCI  27
CENTERVILLE *    N/A    N/A N/A N/A MISG        N/A
OTTUMWA        CLOUDY    35  31  85 S12       30.04F WCI  27
WASHINGTON *   CLEAR     34  30  86 S10       30.08F WCI  26
$$

ABBREVIATIONS USED IN REMARKS
   TC - TEMPERATURES IN CELSIUS
  WCI - WIND CHILL INDEX
   HX - HEAT INDEX
  VSB - VISIBILITY
$$




USA.gov is the U.S. government's official web portal to all federal, state and local government web resources and services.